FW3129 Weather Reports


time (UTC)temp
F
wind
direction
speed
knots
gust
knots
rain 1hr
in
rain 24hr
in
rain mn
in
humidity
%
barometer
mb
20260503033030 81 223 1.7 5.2 0.00 0.00 0.00 79 1016.0
20260503031528 81 263 3.5 7.0 0.00 0.00 0.00 78 1016.0
20260503030030 81 278 2.6 7.0 0.00 0.00 0.00 78 1015.9
20260503024528 81 273 1.7 7.8 0.00 0.00 0.00 76 1015.7
20260503023030 82 252 0.0 2.6 0.00 0.00 0.00 74 1016.0
20260503021530 82 309 0.0 3.5 0.00 0.00 0.00 73 1015.8
20260503020028 83 248 2.6 6.1 0.00 0.00 0.00 71 1015.7
20260503014539 83 307 0.0 7.0 0.00 0.00 0.00 70 1015.8
20260503013032 83 266 0.9 5.2 0.00 0.00 0.00 68 1015.7
20260503011537 84 302 2.6 7.0 0.00 0.00 0.00 66 1015.6
20260503010029 84 264 0.0 6.1 0.00 0.00 0.00 64 1015.2
20260503004530 85 285 0.9 7.8 0.00 0.00 0.00 62 1015.0
20260503003028 85 245 1.7 10.4 0.00 0.00 0.00 60 1014.9
20260503001537 86 295 2.6 11.3 0.00 0.00 0.00 58 1014.6
20260503000028 86 220 2.6 10.4 0.00 0.00 0.00 59 1014.3
20260502234528 87 314 2.6 11.3 0.00 0.00 0.00 57 1013.9
20260502233034 87 283 3.5 9.6 0.00 0.00 0.00 55 1013.7
20260502231538 88 141 4.3 9.6 0.00 0.00 0.00 54 1013.5
20260502230028 90 243 2.6 9.6 0.00 0.00 0.00 53 1013.2
20260502224531 91 299 4.3 7.8 0.00 0.00 0.00 53 1013.0
20260502223028 91 208 4.3 10.4 0.00 0.00 0.00 53 1013.0
20260502221527 91 290 2.6 11.3 0.00 0.00 0.00 53 1013.1
20260502220037 91 186 5.2 11.3 0.00 0.00 0.00 52 1012.9
20260502214530 92 187 4.3 9.6 0.00 0.00 0.00 57 1012.8
20260502213027 89 147 7.0 16.5 0.00 0.00 0.00 67 1012.4
20260502211540 91 239 1.7 11.3 0.00 0.00 0.00 59 1012.5
20260502210028 93 250 6.1 11.3 0.00 0.00 0.00 43 1012.5
20260502204528 94 150 4.3 10.4 0.00 0.00 0.00 46 1012.4
20260502203030 94 214 6.1 14.8 0.00 0.00 0.00 43 1012.4
20260502201526 94 288 3.5 11.3 0.00 0.00 0.00 43 1012.7
20260502200029 94 262 2.6 12.2 0.00 0.00 0.00 46 1012.9
20260502194528 93 174 5.2 15.6 0.00 0.00 0.00 46 1013.1
20260502193028 93 177 5.2 12.2 0.00 0.00 0.00 50 1013.3
20260502191533 92 242 5.2 17.4 0.00 0.00 0.00 52 1013.3
20260502190028 92 154 2.6 11.3 0.00 0.00 0.00 54 1013.5
20260502184533 91 148 5.2 12.2 0.00 0.00 0.00 58 1013.5
20260502183028 89 254 2.6 14.8 0.00 0.00 0.00 65 1013.7
20260502181531 88 122 6.1 13.0 0.00 0.00 0.00 69 1013.7
20260502163034 87 141 8.7 17.4 0.00 0.00 0.00 73 1014.4
20260502161529 87 129 7.0 15.6 0.00 0.00 0.00 73 1014.5
20260502151527 86 183 7.0 13.9 0.00 0.00 0.00 76 1014.6
20260502123030 81 193 3.5 10.4 0.00 0.00 0.00 84 1014.2
20260502121541 81 198 4.3 8.7 0.00 0.00 0.00 85 1014.0
20260502114528 80 215 1.7 6.1 0.00 0.00 0.00 86 1014.0
20260502113030 80 139 1.7 6.1 0.00 0.00 0.00 86 1013.9
20260502111527 80 143 3.5 9.6 0.00 0.00 0.00 86 1014.0
20260502110030 79 182 2.6 7.8 0.00 0.00 0.00 86 1013.9
20260502104541 79 160 4.3 9.6 0.00 0.00 0.00 85 1013.8
20260502103029 79 211 0.9 6.1 0.00 0.00 0.00 86 1013.9
20260502101528 79 150 0.9 7.0 0.00 0.00 0.00 86 1013.9
20260502091528 79 176 0.9 8.7 0.00 0.00 0.00 87 1013.7
20260502070028 79 193 0.9 6.1 0.00 0.00 0.00 86 1013.9
20260502064529 79 146 0.9 6.1 0.00 0.00 0.00 86 1013.8
20260502063028 79 157 2.6 6.1 0.00 0.00 0.00 85 1014.1
20260502061527 79 193 1.7 7.8 0.00 0.00 0.00 85 1014.1
20260502060028 79 191 2.6 6.1 0.00 0.00 0.00 85 1014.0
20260502054530 79 151 2.6 7.0 0.00 0.00 0.00 84 1014.1
20260502053027 79 141 0.9 7.0 0.00 0.00 0.00 85 1014.2
20260502051547 79 148 1.7 7.0 0.00 0.00 0.00 85 1014.3
20260502050028 79 124 0.9 4.3 0.00 0.00 0.00 85 1014.5
20260502044528 79 181 1.7 5.2 0.00 0.00 0.00 85 1014.7
20260502043029 79 116 1.7 4.3 0.00 0.00 0.00 85 1014.7
20260502041529 78 0 0.0 3.5 0.00 0.00 0.00 86 1014.9
20260502040028 78 0 0.0 1.7 0.00 0.00 0.00 85 1014.8
20260502034539 78 218 0.0 1.7 0.00 0.00 0.00 85 1015.0